• In Hungary
  • List of Countries
  • For 7 days
  • Water Temperature
  • Satellite Maps
  • Weather Map
  • News
  • Weather Widgets
  • user-avatar
    Login

    Hourly Weather SanFrancisco

    Today, 18 February, Sunday

    Time Temperature Precipitation Wind Pressure Humidity
    00:00 +12°C° 0.2 mm 1 mps 582 mmHg 81%
    01:00 +12°C° 0.2 mm 1 mps 582 mmHg 81%
    02:00 +12°C° 0.2 mm 1 mps 582 mmHg 81%
    03:00 +11°C° 0.2 mm 1 mps 582 mmHg 82%
    04:00 +11°C° 0.2 mm 1 mps 582 mmHg 83%
    05:00 +11°C° 0.1 mm 1 mps 582 mmHg 82%
    06:00 +11°C° 0.1 mm 1 mps 582 mmHg 82%
    07:00 +12°C° 0.1 mm 1 mps 583 mmHg 81%
    08:00 +13°C° 0.1 mm 1 mps 583 mmHg 78%
    09:00 +14°C° 0.1 mm 2 mps 584 mmHg 75%
    10:00 +15°C° 0.1 mm 2 mps 585 mmHg 71%
    11:00 +15°C° 0.2 mm 2 mps 584 mmHg 71%
    12:00 +15°C° 0.2 mm 2 mps 584 mmHg 70%
    13:00 +16°C° 0.2 mm 2 mps 584 mmHg 69%
    14:00 +16°C° 0.2 mm 2 mps 583 mmHg 68%
    15:00 +16°C° 0.2 mm 2 mps 583 mmHg 67%
    16:00 +18°C° 0.2 mm 1 mps 582 mmHg 66%
    17:00 +15°C° 0.1 mm 1 mps 582 mmHg 71%
    18:00 +14°C° 0.1 mm 1 mps 582 mmHg 76%
    19:00 +13°C° 0.1 mm 1 mps 581 mmHg 81%
    20:00 +12°C° 0 mm 1 mps 581 mmHg 82%
    21:00 +12°C° 0 mm 1 mps 582 mmHg 83%
    22:00 +12°C° 0 mm 1 mps 582 mmHg 84%
    23:00 +11°C° 0 mm 1 mps 582 mmHg 82%

    Tomorrow, 19 February, Monday

    Time Temperature Precipitation Wind Pressure Humidity
    00:00 +11°C° 0 mm 1 mps 581 mmHg 81%
    01:00 +11°C° 0 mm 1 mps 581 mmHg 79%
    02:00 +10°C° 0 mm 1 mps 581 mmHg 79%
    03:00 +10°C° 0 mm 1 mps 581 mmHg 78%
    04:00 +10°C° 0 mm 1 mps 581 mmHg 78%
    05:00 +10°C° 0 mm 1 mps 581 mmHg 76%
    06:00 +11°C° 0 mm 1 mps 582 mmHg 75%
    07:00 +11°C° 0 mm 1 mps 583 mmHg 74%
    08:00 +13°C° 0.1 mm 1 mps 584 mmHg 69%
    09:00 +14°C° 0.1 mm 2 mps 585 mmHg 64%
    10:00 +16°C° 0.1 mm 2 mps 586 mmHg 59%
    11:00 +16°C° 0.1 mm 2 mps 585 mmHg 58%
    12:00 +17°C° 0.1 mm 2 mps 584 mmHg 57%
    13:00 +17°C° 0.1 mm 2 mps 584 mmHg 56%
    14:00 +17°C° 0.1 mm 2 mps 583 mmHg 55%
    15:00 +17°C° 0.1 mm 2 mps 583 mmHg 54%
    16:00 +17°C° 0.1 mm 2 mps 582 mmHg 53%
    17:00 +16°C° 0.1 mm 1 mps 582 mmHg 59%
    18:00 +14°C° 0.1 mm 1 mps 582 mmHg 64%
    19:00 +13°C° 0.1 mm 1 mps 581 mmHg 70%
    20:00 +12°C° 0.1 mm 1 mps 582 mmHg 71%
    21:00 +12°C° 0.1 mm 1 mps 582 mmHg 71%
    22:00 +12°C° 0.1 mm 1 mps 582 mmHg 71%
    23:00 +11°C° 0 mm 1 mps 582 mmHg 72%

    Day after tomorrow, 20 February, Tuesday

    Time Temperature Precipitation Wind Pressure Humidity
    00:00 +11°C° 0 mm 1 mps 582 mmHg 73%
    01:00 +10°C° 0 mm 1 mps 581 mmHg 74%
    02:00 +10°C° 0 mm 1 mps 581 mmHg 75%
    03:00 +10°C° 0 mm 1 mps 581 mmHg 75%
    04:00 +10°C° 0 mm 1 mps 581 mmHg 76%
    05:00 +10°C° 0 mm 1 mps 582 mmHg 74%
    06:00 +10°C° 0 mm 1 mps 582 mmHg 72%
    07:00 +11°C° 0 mm 1 mps 583 mmHg 71%
    08:00 +13°C° 0 mm 2 mps 584 mmHg 63%
    09:00 +15°C° 0 mm 2 mps 585 mmHg 56%
    10:00 +17°C° 0 mm 2 mps 587 mmHg 48%
    11:00 +18°C° 0 mm 2 mps 586 mmHg 46%
    12:00 +19°C° 0 mm 2 mps 586 mmHg 45%
    13:00 +19°C° 0 mm 2 mps 585 mmHg 43%
    14:00 +19°C° 0 mm 2 mps 585 mmHg 44%
    15:00 +19°C° 0 mm 2 mps 584 mmHg 45%
    16:00 +19°C° 0 mm 2 mps 584 mmHg 45%
    17:00 +17°C° 0 mm 2 mps 583 mmHg 53%
    18:00 +15°C° 0 mm 1 mps 583 mmHg 61%
    19:00 +13°C° 0 mm 1 mps 582 mmHg 69%
    20:00 +13°C° 0.1 mm 1 mps 583 mmHg 71%
    21:00 +12°C° 0.1 mm 1 mps 583 mmHg 73%
    22:00 +12°C° 0.1 mm 1 mps 583 mmHg 75%
    23:00 +12°C° 0.1 mm 1 mps 583 mmHg 77%

    21 February, Wednesday

    Time Temperature Precipitation Wind Pressure Humidity
    00:00 +11°C° 0.1 mm 1 mps 582 mmHg 78%
    01:00 +11°C° 0.1 mm 1 mps 582 mmHg 80%
    02:00 +11°C° 0.1 mm 1 mps 582 mmHg 81%
    03:00 +10°C° 0.1 mm 1 mps 582 mmHg 82%
    04:00 +10°C° 0.1 mm 1 mps 582 mmHg 83%
    05:00 +11°C° 0.1 mm 1 mps 582 mmHg 81%
    06:00 +11°C° 0.1 mm 1 mps 583 mmHg 80%
    07:00 +11°C° 0.1 mm 1 mps 583 mmHg 78%
    08:00 +13°C° 0 mm 2 mps 584 mmHg 71%
    09:00 +14°C° 0 mm 2 mps 585 mmHg 65%
    10:00 +16°C° 0 mm 2 mps 586 mmHg 58%
    11:00 +16°C° 0 mm 2 mps 586 mmHg 56%
    12:00 +17°C° 0 mm 2 mps 585 mmHg 54%
    13:00 +17°C° 0 mm 2 mps 585 mmHg 53%
    14:00 +17°C° 0.1 mm 2 mps 584 mmHg 53%
    15:00 +17°C° 0.1 mm 2 mps 584 mmHg 52%
    16:00 +18°C° 0.1 mm 2 mps 583 mmHg 52%
    17:00 +16°C° 0.1 mm 1 mps 583 mmHg 59%
    18:00 +14°C° 0.1 mm 1 mps 583 mmHg 66%
    19:00 +13°C° 0.1 mm 1 mps 582 mmHg 72%
    20:00 +12°C° 0.3 mm 1 mps 582 mmHg 74%
    21:00 +12°C° 0.3 mm 1 mps 583 mmHg 75%
    22:00 +12°C° 0.3 mm 1 mps 583 mmHg 76%
    23:00 +12°C° 0.5 mm 1 mps 583 mmHg 77%

    22 February, Thursday

    Time Temperature Precipitation Wind Pressure Humidity
    00:00 +12°C° 0.5 mm 1 mps 583 mmHg 78%
    01:00 +11°C° 0.5 mm 1 mps 582 mmHg 79%
    02:00 +11°C° 0.3 mm 1 mps 582 mmHg 80%
    03:00 +11°C° 0.3 mm 1 mps 582 mmHg 82%
    04:00 +10°C° 0.3 mm 1 mps 582 mmHg 83%
    05:00 +11°C° 0.1 mm 1 mps 582 mmHg 82%
    06:00 +11°C° 0.1 mm 1 mps 583 mmHg 81%
    07:00 +11°C° 0.1 mm 1 mps 583 mmHg 80%
    08:00 +12°C° 0.2 mm 1 mps 584 mmHg 75%
    09:00 +13°C° 0.2 mm 2 mps 585 mmHg 69%
    10:00 +14°C° 0.2 mm 2 mps 586 mmHg 64%
    11:00 +15°C° 0.1 mm 2 mps 585 mmHg 62%
    12:00 +16°C° 0.1 mm 2 mps 585 mmHg 60%
    13:00 +17°C° 0.1 mm 2 mps 584 mmHg 58%
    14:00 +18°C° 0.1 mm 1 mps 584 mmHg 58%
    15:00 +18°C° 0.1 mm 1 mps 583 mmHg 57%
    16:00 +18°C° 0.1 mm 1 mps 583 mmHg 57%
    17:00 +15°C° 0.1 mm 1 mps 583 mmHg 63%
    18:00 +14°C° 0.1 mm 1 mps 582 mmHg 70%
    19:00 +13°C° 0.1 mm 1 mps 582 mmHg 76%
    20:00 +12°C° 0.1 mm 1 mps 582 mmHg 77%
    21:00 +12°C° 0.1 mm 1 mps 582 mmHg 79%
    22:00 +12°C° 0.1 mm 1 mps 582 mmHg 80%
    23:00 +12°C° 0.1 mm 1 mps 582 mmHg 80%

    23 February, Friday

    Time Temperature Precipitation Wind Pressure Humidity
    00:00 +11°C° 0.1 mm 1 mps 582 mmHg 79%
    01:00 +11°C° 0.1 mm 1 mps 582 mmHg 78%
    02:00 +11°C° 0.1 mm 1 mps 582 mmHg 79%
    03:00 +10°C° 0.1 mm 1 mps 581 mmHg 80%
    04:00 +10°C° 0.1 mm 1 mps 581 mmHg 81%
    05:00 +10°C° 0.1 mm 1 mps 582 mmHg 79%
    06:00 +11°C° 0.1 mm 1 mps 582 mmHg 78%
    07:00 +11°C° 0.1 mm 1 mps 583 mmHg 76%
    08:00 +13°C° 0.1 mm 1 mps 584 mmHg 70%
    09:00 +14°C° 0.1 mm 2 mps 585 mmHg 64%
    10:00 +16°C° 0.1 mm 2 mps 585 mmHg 58%
    11:00 +16°C° 0.1 mm 2 mps 585 mmHg 56%
    12:00 +17°C° 0.1 mm 2 mps 584 mmHg 55%
    13:00 +17°C° 0.1 mm 2 mps 584 mmHg 54%
    14:00 +17°C° 0.1 mm 2 mps 583 mmHg 54%
    15:00 +17°C° 0.1 mm 2 mps 583 mmHg 55%
    16:00 +17°C° 0.1 mm 2 mps 582 mmHg 55%
    17:00 +16°C° 0 mm 2 mps 582 mmHg 61%
    18:00 +14°C° 0 mm 2 mps 581 mmHg 68%
    19:00 +12°C° 0 mm 1 mps 581 mmHg 74%
    20:00 +12°C° 0 mm 2 mps 581 mmHg 75%
    21:00 +12°C° 0 mm 2 mps 581 mmHg 76%
    22:00 +10°C° 0 mm 2 mps 582 mmHg 77%
    23:00 +10°C° 0 mm 2 mps 581 mmHg 76%
    Show more